RH
91 90 90 91 92 90 89 85 83 80 79 77 76 75 75 77 80 78 64 72 74 74 62 63 61 59 56 57 52 48 43 52 51 56 55 50 51 44 51 41 42 44 44 43 47 52 52 52 48 54 58 55 62 59
94 93 92 92 92 92 91 85 81 80 79 79 78 75 76 78 81 80 68 65 70 73 62 65 57 53 54 49 54 58 58 63 51 63 76 76 72 58 70 54 61 68 56 55 57 42 55 56 49 42 50 61 55 61
95 95 94 93 92 93 88 82 80 78 80 81 78 76 77 79 80 79 83 77 68 82 69 68 55 53 53 50 41 55 51 48 50 54 46 64 76 69 70 66 63 61 73 77 65 44 51 48 38 52 54 55 52 50
96 95 94 93 93 92 87 81 78 80 82 81 79 79 78 78 80 72 76 66 74 71 89 53 47 52 44 47 54 48 41 50 49 49 46 46 48 53 50 56 62 49 69 60 63 53 44 34 52 50 47 48 49 54
95 94 92 93 93 87 82 78 79 80 82 82 81 82 82 80 77 74 77 73 62 69 83 64 52 48 51 51 56 54 52 53 55 54 53 52 45 53 44 50 47 40 52 57 51 45 58 55 42 41 50 50 46 56
94 94 95 93 89 84 78 78 79 80 83 83 84 84 84 79 78 61 71 81 74 78 99 85 53 60 51 51 56 58 56 58 58 56 52 46 42 52 52 51 41 38 43 40 49 42 40 48 46 47 52 50 45 53
94 96 93 89 84 80 79 79 80 82 84 85 85 86 88 88 81 64 71 92 80 90 99 85 58 46 55 56 65 60 57 62 58 61 64 62 48 52 53 60 46 40 42 48 44 50 56 52 56 45 43 39 50 53
96 93 89 84 82 79 79 82 83 85 84 85 86 89 91 91 87 81 62 82 76 78 78 84 61 58 55 74 82 68 67 62 61 56 58 56 57 59 62 47 44 48 50 49 51 51 46 44 44 49 45 51 54 56
93 88 85 83 78 81 83 84 87 87 86 86 86 84 80 78 74 82 81 84 66 71 90 79 69 78 51 65 71 71 77 76 62 65 62 61 58 70 53 55 52 51 55 54 59 56 58 57 54 56 58 59 60 60
87 86 80 79 82 83 86 87 89 88 90 83 72 73 78 82 81 80 83 96 92 91 82 86 63 91 74 81 90 68 79 86 86 62 73 81 61 58 60 66 73 75 70 66 78 72 64 65 60 59 58 59 60 60
84 81 81 82 82 84 85 88 90 91 81 74 84 82 79 77 88 94 97 98 87 94 78 83 85 87 74 81 93 85 84 76 88 82 89 87 94 88 91 88 86 79 74 71 69 72 71 74 73 70 68 66 66 66
82 83 84 84 81 83 85 88 91 77 87 87 85 83 78 80 93 95 93 93 93 86 87 87 80 81 76 73 99 88 88 90 89 91 93 92 95 92 91 92 92 85 81 80 68 69 71 73 73 77 77 73 70 66
83 84 83 83 84 84 86 88 89 91 90 82 90 82 80 83 96 92 80 87 89 83 88 85 85 79 91 94 97 97 87 88 92 96 93 94 93 91 92 88 86 82 75 73 71 67 68 78 76 81 85 74 68 70
82 83 84 85 85 86 87 89 89 86 84 90 86 100 76 82 79 74 71 77 68 77 79 88 86 92 95 95 93 92 89 95 96 100 96 95 93 90 90 88 90 86 81 78 77 74 72 73 78 85 77 69 69 72
83 85 85 84 87 88 89 90 89 84 92 90 90 90 79 59 62 58 57 73 71 86 74 72 76 82 94 94 93 91 89 98 96 96 96 96 93 95 95 93 93 93 87 85 81 80 77 77 82 82 72 71 77 74
82 79 85 86 86 90 92 87 88 88 85 83 87 88 68 71 57 55 54 66 56 70 77 78 80 91 95 96 92 92 95 97 94 95 92 96 96 96 97 96 91 90 87 81 83 80 82 84 84 88 85 82 76 78
74 80 84 83 86 88 90 85 90 82 80 86 82 75 72 68 63 56 56 51 57 85 78 84 81 96 95 92 90 89 95 94 90 86 94 96 98 98 97 96 96 90 88 87 87 91 91 87 84 81 83 82 85 87
78 87 80 83 82 86 89 84 88 88 88 76 79 57 69 63 58 54 51 49 56 79 73 75 82 93 90 84 79 90 92 76 77 81 84 91 92 94 96 97 91 91 88 88 95 88 86 81 81 79 87 94 89 86
77 82 82 84 81 86 89 88 84 76 66 65 66 66 65 58 57 55 51 52 55 64 72 89 79 86 85 83 78 61 53 55 65 71 77 84 89 93 93 89 85 88 89 93 98 97 93 89 88 96 96 97 97 93
85 85 85 83 79 85 84 88 91 88 76 66 68 70 64 58 54 53 51 52 59 82 85 72 64 74 65 51 53 60 62 67 76 77 79 77 88 93 92 93 91 88 98 97 97 97 90 98 91 88 96 97 90 96
74 76 85 77 82 81 80 78 78 76 75 77 66 77 71 68 63 55 54 60 63 54 55 57 51 47 59 64 65 83 94 94 94 89 94 95 93 97 94 93 95 98 99 99 99 97 99 99 99 99 98 98 98 94
84 82 88 81 78 79 81 73 71 69 72 63 66 65 69 71 70 58 64 62 59 55 59 62 66 70 76 84 86 90 96 91 88 98 96 91 96 98 98 98 98 98 98 99 98 98 98 98 96 96 98 99 99 98
78 78 81 90 94 93 82 74 87 75 80 67 67 78 83 90 87 89 91 72 73 85 91 94 87 87 92 85 85 83 91 86 94 93 84 83 85 89 91 94 97 97 98 98 98 98 98 99 95 90 93 96 97 98
82 83 90 92 90 86 70 74 74 74 68 68 72 78 82 95 92 88 88 93 98 96 93 92 92 89 90 84 94 96 94 95 92 88 71 72 61 83 83 70 77 71 84 80 86 84 88 83 87 74 83 88 88 90
93 88 89 100 78 78 77 75 67 65 74 70 78 86 96 92 94 92 96 98 97 98 98 93 97 91 87 92 90 74 81 68 74 73 75 77 53 48 49 52 55 57 52 58 62 62 64 65 62 66 64 63 67 69
98 81 92 76 70 73 70 78 81 78 71 83 85 84 91 96 88 91 94 98 96 97 98 99 99 95 95 89 68 62 65 64 63 51 55 52 51 48 49 51 47 51 51 48 49 50 48 47 47 50 49 52 67 49
85 72 68 66 66 70 68 64 66 75 75 90 79 85 86 75 85 95 95 98 97 98 98 99 99 99 92 76 61 59 57 58 57 55 56 53 52 53 52 52 54 58 55 53 49 48 48 48 48 48 48 47 46 46
70 72 78 70 77 68 69 68 72 71 78 78 79 82 79 76 77 86 93 97 99 98 99 99 91 92 60 51 50 56 56 48 43 41 38 38 41 43 49 53 58 87 56 49 47 46 44 44 44 43 45 46 45 40
76 67 71 71 66 69 76 72 71 86 87 74 80 78 71 76 82 76 92 98 99 99 95 68 46 43 46 48 48 47 46 39 43 48 46 40 35 38 43 47 49 45 44 50 89 61 49 43 42 42 44 44 44 42
66 62 66 65 65 65 70 82 82 86 82 74 72 79 83 90 85 79 92 96 96 87 75 49 41 41 45 42 42 43 40 36 32 32 33 33 36 39 42 45 45 42 41 40 40 43 70 47 53 40 42 41 40 40
74 77 71 70 65 62 68 73 77 81 82 79 82 88 89 95 92 96 87 73 69 52 46 36 34 37 37 37 38 38 37 37 39 35 32 33 35 39 40 43 41 40 39 38 37 36 36 39 40 40 40 42 42 38
79 80 79 75 74 76 83 84 81 83 81 89 86 94 97 97 94 71 70 71 70 70 59 36 30 36 37 36 36 37 57 35 38 37 39 36 39 42 39 39 38 38 39 39 39 38 38 33 31 33 33 36 35 34
89 86 84 84 83 80 82 84 88 88 92 91 90 85 85 88 67 59 71 64 61 46 29 35 36 37 42 39 40 41 49 43 65 79 79 76 72 55 35 34 35 35 35 36 37 38 39 39 36 35 35 34 33 33
Wind_Speed
10 10 10 8 8 7 6 4 4 5 7 8 9 9 9 10 9 2 2 1 3 3 8 7 4 6 3 3 3 3 5 3 2 4 4 3 4 4 5 6 6 11 7 6 5 8 13 5 3 5 6 5 8 9
10 10 9 9 8 7 6 4 3 5 7 8 9 8 8 8 8 2 1 0 1 4 6 3 9 11 11 11 3 3 4 3 2 2 2 2 3 3 2 7 2 6 6 5 6 3 2 3 6 9 6 7 9 10
10 9 9 8 7 6 6 3 2 4 7 8 9 9 8 8 8 3 2 1 2 3 6 4 4 2 8 17 15 6 3 4 3 3 2 1 5 2 3 4 3 3 4 5 3 5 3 5 12 6 4 6 10 12
8 7 6 6 5 7 5 3 3 4 6 8 8 9 10 11 10 4 2 1 1 3 4 4 3 8 5 7 15 21 7 1 3 2 3 3 4 4 5 6 6 4 2 4 5 10 13 10 1 4 9 11 12 12
4 3 4 4 7 6 4 2 3 5 7 9 10 10 11 11 6 3 4 4 5 3 4 7 16 2 3 4 10 14 14 11 4 4 4 5 3 4 6 6 11 10 11 9 13 14 12 17 16 14 11 12 14 11
3 4 5 7 6 4 3 3 4 6 8 10 11 10 10 5 4 3 2 2 4 3 3 4 4 4 5 5 9 12 10 7 5 4 4 4 4 4 8 11 12 13 15 17 16 15 17 17 17 14 16 15 16 11
4 7 8 7 4 3 2 4 6 8 10 10 10 10 8 3 1 3 3 2 5 1 2 5 5 3 4 4 2 3 8 4 5 4 5 4 9 5 10 16 19 17 16 16 15 15 16 16 13 11 11 16 13 14
7 8 6 5 3 2 4 6 8 10 10 11 11 9 7 5 4 4 2 9 6 2 2 3 5 5 4 3 2 2 4 4 6 4 3 6 3 4 7 12 12 7 5 9 12 12 18 16 15 16 15 13 15 14
8 6 5 3 1 2 4 7 9 10 11 11 9 5 1 2 1 1 6 10 3 2 3 2 3 4 5 2 3 2 2 4 2 4 4 3 5 8 9 8 7 7 7 13 13 12 10 11 13 12 12 14 15 14
7 5 3 1 2 3 4 7 9 11 11 5 0 2 1 1 8 5 3 1 2 2 2 3 2 4 1 2 3 3 1 2 3 1 1 4 6 10 9 7 7 9 10 10 10 11 9 11 12 14 14 13 13 13
6 4 2 2 3 4 5 7 9 11 2 1 2 1 3 7 2 1 2 3 3 3 4 4 5 4 3 4 3 1 3 1 3 0 3 3 3 0 7 10 9 14 13 12 12 14 13 13 13 13 14 14 12 11
4 3 2 3 3 5 5 6 7 3 2 3 3 3 3 2 2 2 2 2 4 3 4 3 3 5 3 3 2 2 3 1 4 4 3 4 5 8 9 12 17 16 14 12 11 12 13 13 14 14 15 13 12 11
4 3 2 3 5 6 6 6 5 5 3 1 2 2 1 1 1 4 3 2 2 3 3 2 3 2 2 2 3 1 3 2 2 2 2 4 11 12 12 13 14 13 13 11 11 11 11 12 12 13 11 12 10 8
4 2 3 4 6 8 7 6 4 0 2 2 2 3 3 3 4 3 2 2 2 4 5 2 3 2 1 2 2 3 2 2 1 2 5 6 11 16 13 11 11 12 12 12 11 11 10 10 9 6 10 8 7 7
2 2 4 5 1 1 3 1 1 0 1 2 1 4 4 3 4 4 4 3 3 2 3 2 2 1 1 3 2 3 4 3 3 5 5 7 16 14 12 10 11 11 10 10 10 10 10 7 6 6 7 6 5 4
0 3 0 2 4 4 1 2 1 1 1 2 3 3 4 4 3 2 3 3 2 3 1 1 2 2 2 3 3 2 4 3 4 6 10 11 15 15 12 10 12 11 10 9 8 9 9 6 5 3 2 4 5 5
2 1 2 3 4 1 4 1 2 2 2 3 4 5 6 6 7 4 2 3 2 3 3 1 4 3 2 2 3 3 2 6 9 11 8 10 12 13 14 13 10 10 10 10 11 8 7 5 3 4 4 3 6 8
2 3 2 5 4 2 1 2 2 2 4 5 4 1 3 4 5 5 4 3 2 1 2 2 2 2 2 3 3 3 4 7 7 8 9 10 10 11 9 10 9 7 9 11 8 8 5 8 7 7 7 6 3 4
2 2 3 3 2 1 2 3 3 3 4 3 4 4 4 4 6 7 6 4 3 2 3 2 3 3 3 2 5 10 10 9 10 10 9 10 9 11 10 8 7 5 8 10 8 6 5 8 6 3 4 3 2 3
5 8 8 5 3 1 3 2 2 3 4 2 3 4 3 4 3 3 3 3 3 2 3 3 3 2 3 8 8 9 10 8 7 8 9 8 7 10 9 8 6 6 5 6 6 9 7 5 6 5 5 5 4 4
1 1 5 4 2 2 2 2 3 3 4 4 3 2 4 2 3 3 2 2 4 3 4 4 6 7 6 7 5 6 5 5 5 4 6 8 9 7 7 6 6 4 4 6 6 5 4 3 4 4 5 5 5 6
0 3 2 2 2 2 3 3 4 3 3 3 3 3 3 2 2 1 1 3 3 1 2 3 5 6 7 6 7 6 5 5 3 3 4 5 6 6 7 6 6 6 6 6 6 6 7 7 6 6 6 7 8 7
2 2 2 3 4 3 4 1 4 3 4 2 2 3 2 2 1 2 2 0 2 2 3 4 7 7 7 6 4 4 3 4 4 4 5 5 5 5 6 7 7 7 7 8 6 7 7 8 10 9 8 8 8 9
1 2 2 2 4 3 2 3 3 3 3 3 2 3 4 2 3 2 1 2 2 4 3 6 6 3 1 1 2 3 4 2 2 4 5 5 7 6 5 8 7 9 8 7 7 8 8 9 9 10 10 11 11 11
1 1 2 3 2 3 4 3 3 3 3 1 2 3 1 1 2 2 3 3 5 5 4 5 4 5 3 2 1 2 5 4 4 5 5 4 4 6 8 8 8 8 6 8 10 10 9 9 10 11 13 13 15 15
2 4 5 3 2 4 2 2 2 3 3 2 3 2 2 1 2 2 2 3 2 3 5 4 5 5 3 2 2 2 3 2 1 6 5 5 6 6 7 7 7 8 7 7 9 11 12 12 13 15 14 15 13 15
2 3 3 3 3 3 3 4 2 2 3 2 2 3 2 3 1 2 1 2 2 2 3 3 4 4 5 4 2 1 1 2 4 5 3 4 5 6 6 6 7 4 5 7 8 10 11 11 12 12 12 12 12 11
3 2 3 2 3 3 3 2 2 2 1 1 1 1 2 1 1 1 2 1 3 4 3 4 2 2 3 2 1 2 4 5 6 6 5 6 6 6 7 5 6 8 6 7 8 8 9 10 10 10 11 10 10 10
3 2 3 4 3 2 3 3 2 1 1 1 2 2 2 2 1 2 1 2 4 4 4 5 3 3 2 2 3 2 1 2 4 8 8 6 5 7 6 5 5 6 7 9 15 11 12 10 9 9 10 9 8 8
3 3 3 3 3 3 1 3 1 1 2 2 2 2 3 3 3 1 2 3 3 4 4 3 3 1 2 3 4 5 4 3 4 4 5 6 5 4 5 6 6 7 7 8 9 9 7 9 8 8 7 6 5 5
1 2 3 3 3 2 1 1 2 2 3 3 3 3 3 3 2 2 4 3 3 1 3 3 1 3 3 3 3 5 6 4 5 8 7 5 4 5 5 5 5 5 6 7 7 7 7 7 7 7 8 8 7 7
3 4 2 3 2 1 1 2 1 2 2 2 2 2 1 2 2 2 3 4 3 1 1 1 2 4 3 3 3 4 5 5 5 5 6 5 5 5 5 4 4 5 5 6 5 6 7 7 7 7 6 8 8 9
2 2 2 2 2 3 2 2 2 2 2 2 2 2 2 3 2 2 2 1 2 1 4 4 5 5 6 6 6 5 5 6 7 8 9 9 8 5 4 4 5 5 6 5 5 5 5 5 5 6 5 5 6 7
Wind_Direction
270 267 263 256 246 235 243 253 284 314 320 329 332 334 338 348 2 16 338 317 346 289 280 239 244 237 227 231 256 16 279 179 241 229 241 206 240 206 247 243 222 216 221 224 219 234 249 12 169 267 4 321 322 330
271 265 261 253 233 232 220 224 268 306 316 324 327 328 326 333 343 120 302 24 329 240 279 291 265 263 252 257 255 201 332 305 292 253 222 262 242 233 266 243 181 230 234 237 225 243 123 14 335 307 279 292 312 310
271 262 250 244 224 234 199 210 269 305 317 327 329 326 321 319 319 314 247 288 251 275 281 272 236 219 228 237 234 245 214 259 235 315 307 283 266 205 252 239 282 211 197 234 245 217 267 294 307 283 278 298 313 309
275 265 250 224 221 179 185 212 271 300 313 316 320 316 307 301 302 324 251 155 213 277 289 289 305 281 266 224 208 217 236 124 334 294 266 259 255 204 263 290 259 287 204 266 265 287 303 300 4 318 302 299 298 305
271 235 203 213 166 172 185 222 283 305 310 312 315 313 313 321 302 298 249 223 234 261 305 296 303 274 228 208 200 208 225 239 268 253 238 241 250 238 235 259 253 233 251 256 269 279 273 276 285 290 271 294 300 296
229 205 175 147 148 174 206 257 296 303 306 307 306 309 315 350 360 296 235 129 184 190 278 299 333 276 302 233 219 218 217 212 221 227 232 228 240 240 264 260 263 263 249 253 259 262 272 266 278 279 271 282 289 281
212 148 140 144 162 197 261 294 303 305 303 304 305 303 308 305 210 251 346 68 142 142 264 296 295 282 293 270 164 150 177 195 215 226 227 233 252 209 263 268 271 270 261 253 252 265 264 250 265 271 281 286 271 279
147 141 148 155 169 253 301 308 310 307 310 309 304 296 291 275 237 270 257 217 190 282 272 286 286 298 9 294 274 166 182 200 207 251 235 244 208 223 259 262 271 275 279 266 267 253 255 270 271 274 271 268 267 271
141 150 153 168 217 291 315 315 312 314 314 310 304 308 196 198 212 355 17 133 171 279 295 282 296 313 345 295 290 241 244 234 131 246 233 234 217 225 246 273 274 285 278 288 292 270 253 254 266 267 266 265 263 270
148 153 166 189 277 302 317 324 323 322 316 318 213 249 197 165 299 168 220 146 180 209 224 255 233 255 341 312 287 284 173 288 261 191 126 228 253 267 299 315 303 291 291 289 274 276 258 248 252 255 258 260 263 270
155 163 186 258 283 307 326 332 333 331 278 346 355 310 335 311 204 228 238 200 161 235 210 233 217 254 207 239 273 312 320 275 270 46 266 233 249 340 350 328 326 316 306 289 270 271 277 270 270 269 268 260 258 259
172 188 249 254 279 311 321 328 341 354 50 325 298 298 280 245 222 254 239 150 219 256 190 224 244 219 262 217 240 212 272 184 254 351 307 300 360 317 310 307 313 299 296 289 285 279 273 266 269 269 264 259 248 243
197 224 222 269 293 302 300 303 305 284 300 216 239 246 253 190 285 234 190 206 245 223 231 250 288 254 246 198 268 291 285 281 353 229 278 254 265 282 284 285 287 288 292 291 292 287 280 277 277 265 244 241 243 238
188 203 284 292 292 289 289 283 275 224 263 249 235 279 231 205 243 221 240 308 276 249 289 274 262 259 27 280 258 266 268 274 28 290 251 261 272 288 298 302 302 304 308 305 301 297 293 289 290 253 234 225 214 228
216 281 296 301 27 94 353 302 175 123 287 268 275 250 227 276 270 280 292 275 257 286 287 270 249 273 301 299 267 305 342 343 296 255 250 292 305 305 306 309 313 310 312 308 307 305 302 307 296 252 223 218 220 228
299 311 95 252 283 286 263 110 105 197 207 252 242 264 241 269 273 296 298 282 350 323 254 224 288 265 358 337 355 323 287 247 263 267 300 306 306 312 312 317 319 316 321 313 306 308 301 299 289 241 198 231 255 247
94 151 76 21 352 85 143 164 203 225 248 230 236 234 264 279 270 276 271 281 351 309 327 351 356 3 275 289 261 215 243 261 284 299 300 293 290 296 298 302 311 322 327 328 324 321 314 303 194 174 214 223 273 252
206 132 67 19 10 125 169 208 222 232 250 232 245 224 212 246 270 261 253 253 258 310 298 345 182 250 251 288 320 248 267 291 292 288 298 305 313 316 314 316 328 329 333 347 347 356 49 75 76 63 28 358 21 155
195 210 289 331 15 278 247 197 218 263 254 264 255 245 251 258 248 259 269 265 264 269 280 241 254 232 250 239 288 303 316 322 319 315 306 308 328 337 335 346 354 359 354 8 5 35 50 48 58 41 341 320 25 53
276 275 268 239 184 249 250 209 204 258 267 311 252 248 244 256 276 251 258 235 210 198 219 234 237 248 265 310 313 304 306 319 309 318 334 349 352 344 352 356 358 358 1 359 26 28 39 30 43 43 15 11 45 36
268 126 100 133 175 219 272 301 250 255 294 269 295 276 265 247 254 253 251 163 206 221 234 236 267 287 300 292 308 302 299 315 328 321 325 329 345 347 0 7 11 8 13 23 33 40 38 37 25 21 42 36 46 60
172 189 138 202 242 191 258 219 269 303 260 279 277 224 269 276 267 229 138 213 230 276 250 277 285 299 302 306 325 324 305 316 345 319 331 340 5 3 11 7 8 25 28 25 25 35 45 41 42 45 54 56 46 54
296 169 204 194 209 212 265 201 252 221 252 251 243 255 238 247 216 144 253 252 281 256 276 278 293 301 278 292 317 346 339 351 30 13 22 36 29 17 16 19 17 30 40 29 26 41 43 31 37 54 57 55 59 59
276 208 231 221 208 258 234 240 225 257 256 251 261 325 317 300 313 239 267 84 352 307 330 339 339 316 238 72 25 349 7 356 51 41 23 38 52 22 26 46 46 51 46 51 44 47 41 46 46 58 58 62 57 57
137 210 132 283 235 246 246 246 237 236 256 269 281 246 195 321 300 21 11 334 323 317 1 10 8 16 355 338 333 43 33 34 55 55 14 4 49 71 61 59 56 44 39 66 58 60 61 62 58 57 61 67 72 67
209 186 178 215 194 226 245 286 291 301 318 310 288 10 39 307 32 41 273 263 275 306 332 346 347 340 328 347 323 52 40 18 345 77 32 13 22 39 53 55 54 45 30 50 74 75 71 69 67 70 71 69 63 75
243 231 208 228 273 267 256 253 259 260 271 275 27 345 319 324 347 192 255 241 275 296 299 295 298 300 294 311 335 337 347 54 68 84 70 46 42 32 26 38 48 28 25 53 65 73 79 76 73 72 73 66 61 64
273 267 226 138 224 232 271 282 256 246 267 28 175 254 289 297 294 272 251 273 272 293 290 282 301 237 279 292 313 142 111 117 113 115 121 87 67 54 44 58 55 45 57 57 75 77 78 78 76 74 72 70 66 64
234 213 225 248 236 224 233 249 279 49 40 319 317 290 277 238 250 289 353 333 301 295 310 341 348 359 57 80 73 61 99 167 120 89 76 61 49 41 28 50 69 75 80 79 47 62 75 77 78 79 81 80 73 72
235 198 230 232 225 226 224 200 258 252 223 251 271 278 259 262 262 107 201 230 234 258 300 320 333 329 124 137 122 93 40 23 28 80 82 65 51 41 47 63 80 90 98 98 97 98 111 99 101 90 84 81 75 75
194 192 226 231 256 243 248 283 259 250 244 243 226 244 266 296 311 231 221 228 237 194 221 223 89 36 83 111 120 126 105 54 69 87 90 88 74 63 63 74 85 93 92 86 83 81 80 72 64 62 59 54 49 34
198 216 225 229 249 205 255 235 258 260 258 255 234 196 255 235 253 193 188 190 215 261 48 35 113 90 55 65 61 68 52 101 99 96 91 88 81 71 71 73 81 83 84 81 80 77 71 62 55 46 49 47 36 29
214 205 227 262 261 248 193 228 232 265 239 265 240 219 200 221 174 153 117 172 341 4 121 103 98 94 81 73 77 83 66 72 65 67 73 72 73 73 79 73 72 73 74 67 64 71 69 64 55 56 54 37 32 25